Startseite
Über Mich
AHP4
Galerie
Sehschlangen
Tourenbuch
Bookmarks
Elektronik
Bewertung
Geschichten
[Tagesmessung] [Jahreswerte] [Information]

Messwerte vom 20.06.2022

Die letzten Messwerte von 23:58:46 Uhr:
KategorieMesswert
Temperatur [°C]10
Luftdruck [mBar]998
Sonneneinstrahlung0
Wind [km/h]0 aus Südwest
Niederschlag [l/m²]0
rel.Luftfeucht.85%
CO2 [ppm]562

Diagramme
Messwerte vom 20.06.2022
Tagesaggregation
KategorieMinimumMaximumSchnittSumme
Temperatur [°C]102615.4021
Luftdruck [mBar]994999996.8000
Sonneneinstrahlung248136.1688
Wind [km/h]13
rF [%]4096.683.03
Niederschlag [l/m²]10.0425
CO2 [ppm]401749528.8
Einordnung alsVegetationstag
Sommertag

Messungen an benachbarten Tagen: Zur Jahresaggregation 2022
Tabelle aller Messwerte
UhrzeitTemperatur [°C]Luftdruck [mBar]SonneWind [km/h]RichtungRegen [l/m²]rF [%]CO2 [ppm]
00:01:47 14 996 0 2 SO 0 96.6 640
00:04:46 14 996 0 0 O 0.2575 96.6 641
00:07:47 14 997 0 0 S 0 96.6 646
00:10:48 14 995 0 4 N 0 96.6 655
00:13:45 14 995 0 4 N 0 96.6 653
00:16:47 14 996 0 4 N 0 96.6 652
00:19:45 14 995 0 0 N 0.2575 96.6 651
00:22:46 14 996 0 0 O 0 96.6 653
00:25:47 14 996 0 0 O 0.2575 96.6 653
00:28:47 14 996 0 1 NW 0 96.6 655
00:31:47 14 996 0 0 NW 0 96.6 659
00:34:48 14 996 0 1 O 0 96.6 661
00:37:48 14 995 0 0 SO 0 96.6 664
00:40:47 14 996 0 0 SO 0 96.6 664
00:43:47 14 996 0 0 SO 0 96.6 659
00:46:47 14 996 0 0 W 0 96.6 667
00:49:48 14 996 0 0 W 0 96.6 661
00:52:49 14 996 0 1 SO 0 96.6 667
00:55:47 14 996 0 0 SO 0 96.6 670
00:58:47 14 996 0 0 SO 0 96.6 671
01:01:47 14 996 0 0 SO 0 96.6 677
01:04:48 14 997 0 1 W 0 96.6 682
01:07:47 14 996 0 0 W 0 96.6 682
01:10:46 14 996 0 0 W 0 96.6 685
01:13:48 14 996 0 0 W 0 96.6 685
01:16:46 14 997 0 3 SW 0 96.6 682
01:19:49 14 996 50 4 O 0 96.6 664
01:22:46 14 996 50 0 0.515 96.6 674
01:25:46 14 996 50 1 0.2575 96.6 676
01:28:45 14 996 50 0 0 96.6 685
01:31:44 14 996 50 1 0.2575 96.6 682
01:34:45 14 996 50 1 0 96.6 679
01:37:44 14 996 50 3 0 96.6 681
01:40:44 14 996 50 1 0 96.6 685
01:43:46 14 996 50 0 0 96.6 693
01:46:46 14 996 50 0 0 96.6 691
01:49:46 14 996 50 0 0 96.6 685
01:52:44 14 996 50 0 0 96.6 679
01:55:47 14 996 50 0 0 96.6 682
01:58:44 14 996 50 0 0 96.6 686
02:01:45 14 996 50 0 0 96.6 686
02:04:46 14 996 50 0 0 96.6 682
02:07:46 14 996 50 0 0 96.6 687
02:10:45 14 996 50 0 0 96.6 690
02:13:47 14 996 50 2 0.2575 96.6 688
02:16:47 14 996 50 6 0.7725 96.6 690
02:19:45 14 996 50 0 0 96.6 693
02:22:46 14 996 50 0 0 96.6 700
02:25:47 14 996 50 0 0 96.6 703
02:28:46 14 996 50 0 0 96.6 709
02:31:46 14 996 50 3 0 96.6 702
02:34:46 14 996 50 2 0 96.6 703
02:37:45 14 996 50 1 0 96.6 704
02:40:46 14 996 50 0 0 96.6 699
02:43:47 14 996 50 0 0 96.6 697
02:46:44 14 996 50 1 0 96.6 693
02:49:46 14 996 50 0 0 96.6 709
02:52:44 14 996 50 1 0 96.6 718
02:55:43 14 996 50 2 0 96.6 711
02:58:45 14 996 50 1 0.2575 96.6 702
03:01:46 13 996 50 2 0 96.6 706
03:04:46 13 996 50 3 0 96.6 706
03:07:44 13 996 50 5 0 96.6 708
03:10:45 13 996 50 3 0 96.6 702
03:13:45 13 996 50 2 0 96.6 706
03:16:46 13 996 50 5 0 96.6 710
03:19:46 13 996 50 5 0 96.6 709
03:22:46 13 996 50 0 0 96.6 693
03:25:44 13 996 50 0 0 96.6 697
03:28:45 13 996 50 0 0 96.6 703
03:31:44 13 996 50 2 0 96.6 708
03:34:47 13 996 50 4 0 96.6 707
03:37:45 13 996 50 0 0 96.6 700
03:40:46 13 996 50 0 0 96.6 700
03:43:45 13 996 50 0 0 96.6 700
03:46:45 13 996 50 0 0 96.6 702
03:49:45 13 996 50 1 0 96.6 703
03:52:46 13 996 50 0 0 96.6 704
03:55:44 13 996 50 0 0 96.6 706
03:58:44 13 996 50 3 0 96.6 711
04:01:47 13 996 50 2 0 96.6 709
04:04:47 13 996 50 1 0 96.6 710
04:07:49 13 996 50 0 0 96.6 718
04:10:45 13 996 50 2 0 96.6 713
04:13:46 13 996 50 0 0 96.6 714
04:16:46 13 996 50 0 0 96.6 717
04:19:44 13 996 50 3 0 96.6 716
04:22:45 13 996 50 0 0 96.6 717
04:25:45 13 996 50 0 0 96.6 715
04:28:44 13 996 50 0 0 96.6 725
04:31:44 13 996 50 1 0 96.6 721
04:34:44 13 996 50 0 0 96.6 723
04:37:46 13 996 50 0 0 96.6 719
04:40:44 13 996 50 0 0 96.6 719
04:43:45 13 996 50 1 0 96.6 727
04:46:44 13 996 50 3 0 96.6 725
04:49:44 13 996 50 1 0 96.6 727
04:52:47 13 996 50 0 0 96.6 724
04:55:45 13 996 50 0 0 96.6 723
04:58:45 13 996 50 1 0 96.6 717
05:01:47 13 996 50 0 0 96.6 717
05:04:46 13 996 50 0 0 96.6 721
05:07:46 13 996 50 2 0 96.6 720
05:10:44 13 996 50 3 0 96.6 723
05:13:44 13 996 50 2 0 96.6 729
05:16:44 13 996 50 0 0 96.6 729
05:19:47 13 996 50 2 0 96.6 735
05:22:46 13 996 50 3 0 96.6 725
05:25:44 13 996 50 5 0 96.6 729
05:28:46 13 996 50 4 0 96.6 723
05:31:45 13 996 50 7 0 96.6 720
05:34:45 13 996 50 3 0 96.6 723
05:37:47 13 996 50 0 0 96.6 724
05:40:46 13 996 50 0 0 96.6 725
05:43:44 13 996 50 1 0 96.6 723
05:46:44 13 996 50 4 0 96.6 726
05:49:45 13 996 50 0 0 96.6 726
05:52:45 13 996 50 1 0.2575 96.6 726
05:55:46 13 996 50 0 0 96.6 723
05:58:43 13 996 50 0 0.2575 96.6 728
06:01:44 13 996 50 0 0 96.6 728
06:04:48 13 996 50 1 0.2575 96.6 735
06:07:45 13 996 50 0 0.2575 96.6 729
06:10:46 13 996 50 2 0 96.6 729
06:13:46 13 996 50 2 0.2575 96.6 730
06:16:43 13 996 50 2 0.2575 96.6 734
06:19:44 13 996 50 0 0.2575 96.6 747
06:22:45 13 996 50 0 0.2575 96.6 746
06:25:45 13 996 50 0 0.2575 96.6 743
06:28:45 13 996 50 0 0.2575 96.6 741
06:31:45 13 996 50 0 0.2575 96.6 738
06:34:45 13 996 50 1 0.2575 96.6 749
06:37:45 13 996 50 1 0 96.6 749
06:40:45 13 996 50 0 0.2575 96.6 741
06:43:45 13 996 50 3 0.2575 96.6 734
06:46:44 13 996 50 1 0.2575 96.6 741
06:49:45 13 996 50 7 0.2575 96.6 741
06:52:44 12 996 50 3 0.2575 96.6 743
06:55:46 12 996 50 0 0.2575 96.6 746
06:58:45 12 996 50 7 0.2575 96.6 743
07:01:46 12 996 50 3 0 96.6 743
07:04:47 12 996 50 2 0.2575 96.6 740
07:07:44 12 996 50 4 0.2575 96.6 732
07:10:47 12 996 50 3 0 96.6 735
07:13:44 12 996 50 7 0.2575 96.6 728
07:16:44 12 996 50 5 0 96.6 724
07:19:47 12 994 163 2 NW 0 96.6 705
07:22:48 12 995 157 6 N 0.2575 96.6 697
07:25:46 12 994 143 5 N 0 96.6 653
07:28:50 13 994 143 3 NO 0 96.6 634
07:31:46 13 995 138 7 N 0 96.6 621
07:34:48 13 994 153 10 NW 0 96.6 618
07:37:48 13 995 170 9 N 0 96.6 614
07:40:48 13 995 167 0 NW 0 96.6 592
07:43:50 13 996 171 0 SO 0.2575 96.6 585
07:46:49 13 995 166 1 SO 0 96.6 574
07:49:49 13 996 168 0 SO 0 96.6 567
07:52:50 13 996 161 1 S 0 96.6 565
07:55:50 13 995 157 4 N 0 96.6 568
07:58:49 13 995 150 2 NW 0 96.6 567
08:01:47 13 997 135 0 NW 0 96.6 562
08:04:49 13 996 135 0 NW 0 96.6 550
08:07:49 13 996 153 2 NW 0.2575 96.6 547
08:10:49 13 996 165 2 NW 0 96.6 541
08:13:48 13 996 175 0 N 0 96.6 536
08:16:51 13 996 191 0 NW 0 96.6 533
08:19:50 13 996 189 1 NW 0 96.6 527
08:22:48 13 996 183 2 N 0 96.6 524
08:25:50 13 996 179 7 NW 0 96.6 515
08:28:49 13 996 185 2 N 0 96.6 521
08:31:48 13 995 180 6 N 0 96.6 518
08:34:47 13 996 165 1 SW 0 96.6 515
08:37:49 13 996 142 2 NO 0 96.6 515
08:40:47 13 997 146 2 O 0 96.6 515
08:43:51 13 996 146 3 NW 0 96.6 515
08:46:48 13 997 149 2 NW 0 96.6 509
08:49:47 13 996 169 1 S 0 96.6 504
08:52:50 13 998 149 2 NW 0 96.6 495
08:55:48 13 997 173 0 NW 0 96.6 498
08:58:49 13 997 164 1 NW 0 96.6 495
09:01:48 13 997 146 0 NW 0 96.6 492
09:04:50 13 997 160 0 SW 0 96.6 492
09:07:48 13 998 163 0 NO 0 96.6 489
09:10:50 13 997 166 0 NO 0 96.6 492
09:13:50 13 997 176 2 SO 0 96.6 483
09:16:47 13 997 192 0 O 0 96.6 480
09:19:48 13 998 196 0 NW 0 96.6 463
09:22:47 13 997 200 2 W 0 96.6 471
09:25:51 13 997 200 1 W 0 96.6 474
09:28:48 13 997 194 1 NW 0 96.6 474
09:31:48 13 997 191 1 NW 0 96.6 469
09:34:49 13 997 195 0 NW 0 96.6 477
09:37:48 13 996 189 1 NW 0 96.6 477
09:40:50 13 996 180 3 NW 0 96.6 475
09:43:47 13 996 179 3 W 0 96.6 471
09:46:48 13 996 172 4 N 0 96.6 468
09:49:48 13 996 181 2 N 0.2575 96.6 466
09:52:48 13 996 199 10 W 0 96.6 460
09:55:49 13 996 201 1 N 0 96.6 462
09:58:47 13 996 199 4 W 0 96.6 460
10:01:50 13 997 200 1 NW 0 96.6 456
10:04:47 13 996 200 0 N 0 96.6 453
10:07:49 13 996 200 1 NW 0 96.6 451
10:10:49 13 996 201 1 NW 0.2575 96.6 454
10:13:47 13 996 199 0 NW 0 96.6 454
10:16:47 13 997 203 2 NW 0 96.6 454
10:19:48 13 997 201 0 N 0 96.6 448
10:22:49 13 997 194 0 SW 0 96.6 454
10:25:49 13 997 195 0 NW 0 96.6 450
10:28:50 13 997 200 0 NO 0 96.6 459
10:31:47 13 997 204 0 SO 0 96.6 457
10:34:49 14 996 205 0 W 0 96.6 456
10:37:49 14 997 205 0 SW 0 96.6 445
10:40:46 14 996 200 3 W 0 96.6 445
10:43:48 14 997 200 0 NO 0 96.6 444
10:46:46 14 997 197 0 S 0 96.6 445
10:49:45 13 997 183 0 W 0 96.6 438
10:52:46 13 997 175 1 NW 0 96.6 436
10:55:52 13 997 191 0 SO 0 96.6 433
10:58:46 13 998 191 1 S 0 96.6 436
11:01:47 13 997 196 0 NO 0 96.6 439
11:04:48 13 997 184 0 S 0 96.6 438
11:07:46 13 998 171 1 NW 0 96.6 444
11:10:47 13 998 193 1 O 0 96.6 439
11:13:47 13 998 195 0 O 0 96.6 433
11:16:49 13 998 198 0 N 0 96.6 427
11:19:45 13 997 198 0 S 0 96.6 427
11:22:47 13 998 192 0 NO 0 96.6 429
11:25:47 13 998 191 0 NW 0 96.6 433
11:28:48 13 998 194 0 SO 0 96.6 430
11:31:50 13 997 201 1 SO 0 96.6 439
11:34:48 13 997 204 1 NW 0 96.6 439
11:37:49 13 997 209 1 NW 0 96.6 433
11:40:46 13 997 214 1 SW 0 96.6 422
11:43:48 14 998 210 0 NW 0 96.6 427
11:46:49 14 997 208 0 NW 0 96.6 433
11:49:47 14 997 216 0 SO 0 96.6 430
11:52:47 14 997 215 2 S 0 96.6 424
11:55:47 14 997 214 0 S 0 96.6 430
11:58:48 14 997 213 1 SW 0 96.6 433
12:01:47 14 997 218 0 O 0 96.6 431
12:04:48 14 997 221 4 NW 0 96.6 424
12:07:47 14 997 220 4 SW 0 96.6 424
12:10:49 15 997 217 3 SW 0 96.6 421
12:13:50 15 997 215 0 SO 0 96.6 415
12:16:48 15 997 216 0 SW 0 96.6 415
12:19:48 15 997 213 1 NW 0 96.6 413
12:22:49 15 997 213 0 NW 0 96.6 416
12:25:47 15 997 224 3 S 0 96.6 415
12:28:47 15 997 223 5 O 0 96.6 422
12:31:51 15 998 226 0 SW 0 96.6 424
12:34:47 15 997 227 1 W 0 96.6 421
12:37:48 16 997 226 0 NW 0 96.6 415
12:40:48 16 998 218 0 S 0 96.6 416
12:43:48 16 997 224 0 SO 0 96.6 419
12:46:49 16 996 228 0 SO 0 96.6 419
12:49:47 16 997 227 1 S 0 96.6 419
12:52:50 17 997 223 1 SO 0 96.4 425
12:55:48 17 998 226 2 SO 0 96.4 418
12:58:48 17 997 226 2 W 0 96.5 419
13:01:47 17 997 226 1 S 0 94.5 418
13:04:47 17 998 228 3 W 0 93.5 416
13:07:49 17 998 228 0 S 0 94.5 409
13:10:47 17 997 224 0 SW 0 95.3 410
13:13:48 17 998 228 1 SW 0 94.8 406
13:16:49 17 998 225 2 NW 0 93.9 410
13:19:50 17 998 226 0 NW 0 92.5 413
13:22:46 17 998 227 1 SO 0 91.5 418
13:25:51 17 997 226 0 SO 0 90.3 407
13:28:47 17 998 222 6 SW 0 89.2 407
13:31:48 17 998 228 6 SO 0 90.5 406
13:34:48 17 997 229 2 SW 0 91.2 407
13:37:50 17 998 230 1 SO 0 91.9 404
13:40:49 17 997 226 1 SW 0 91.5 407
13:43:47 17 997 223 3 NO 0 90.8 407
13:46:47 17 998 225 1 SW 0 89.1 401
13:49:48 17 998 224 0 SW 0 90.4 403
13:52:48 17 998 226 1 S 0 91.2 406
13:55:47 17 998 227 0 S 0 90.3 407
13:58:47 17 997 224 4 S 0 90.1 407
14:01:48 17 997 227 2 S 0 89.7 407
14:04:48 17 997 219 3 SO 0 89.9 407
14:07:46 17 997 225 1 S 0 90.4 407
14:10:46 17 997 233 0 W 0 91.1 406
14:13:49 18 997 235 3 SW 0 92.5 407
14:16:49 19 997 228 5 SW 0 87.9 404
14:19:48 18 998 232 3 W 0 86.6 407
14:22:49 18 997 223 3 SW 0 85.4 407
14:25:46 18 998 226 2 W 0 84.7 407
14:28:47 18 997 223 8 S 0 85.9 407
14:31:47 18 998 224 5 SW 0 85.3 404
14:34:50 17 997 223 5 NO 0 85.1 407
14:37:48 18 997 241 1 SW 0 88.1 406
14:40:49 19 998 239 4 SO 0 88.8 407
14:43:47 19 997 241 5 SW 0 86.5 404
14:46:47 20 997 242 3 S 0 82.1 404
14:49:47 21 997 242 4 0 81.1 407
14:52:48 21 997 243 2 SW 0 80 406
14:55:48 21 998 244 7 N 0 76.7 404
14:58:49 21 996 222 2 NW 0 73.7 407
15:01:49 20 997 226 3 SO 0 73.3 406
15:04:48 19 997 244 1 W 0 77.5 407
15:07:49 20 997 244 0 W 0 78.4 407
15:10:45 20 996 230 3 O 0 78.7 406
15:13:48 21 997 226 7 SW 0 74.3 404
15:16:49 20 997 224 6 SO 0 72.7 403
15:19:49 20 996 226 1 S 0 72.5 403
15:22:31 19 997 227 0 S 0 65.5 407
15:25:48 20 997 245 1 SO 0 77.7 407
15:28:48 21 997 245 2 SO 0 75.7 407
15:31:47 22 996 245 3 N 0 70.4 406
15:34:48 23 997 245 2 W 0 70.3 419
15:37:47 24 997 246 3 S 0 64.9 415
15:40:48 24 997 246 4 S 0 64.5 409
15:43:48 24 996 246 7 NW 0 59.5 409
15:46:48 25 996 246 4 W 0 58.2 407
15:49:48 24 997 235 2 NW 0 57.5 406
15:52:47 24 996 246 4 NW 0 56.7 403
15:55:47 24 997 246 4 SO 0 57.8 406
15:58:48 23 996 234 4 NW 0 53.3 404
16:01:48 22 996 241 4 W 0 53.2 406
16:04:47 22 996 246 3 W 0 53.5 407
16:07:47 22 996 247 1 O 0 46.2 416
16:10:48 23 996 247 7 SO 0 58.8 412
16:13:47 24 996 247 5 S 0 53.8 410
16:16:50 24 996 236 2 SO 0 54.1 410
16:19:47 24 997 247 3 S 0 54 407
16:22:48 24 996 247 7 S 0 52.9 407
16:25:49 25 996 242 5 NW 0 52.2 406
16:28:49 24 997 240 1 NW 0 50.5 406
16:31:47 23 997 235 4 SO 0 53.3 434
16:34:50 23 996 230 3 NW 0 54.4 407
16:37:48 23 997 227 4 SO 0 55.8 404
16:40:51 22 997 229 6 NW 0 53.9 407
16:43:32 22 997 237 3 W 0 43.5 407
16:46:32 22 996 233 7 SW 0 40 413
16:49:47 21 998 234 0 SW 0 53.4 406
16:52:49 21 996 240 3 N 0 58.8 408
16:55:47 21 997 247 5 S 0 58.8 410
16:58:30 20 997 247 4 SO 0 40 409
17:01:47 24 996 247 6 NO 0 53.6 406
17:04:48 25 996 247 3 S 0 49.9 406
17:07:50 26 996 237 10 SW 0 45.4 406
17:10:47 26 997 237 2 SO 0 44.9 406
17:13:47 25 996 240 7 S 0 45 407
17:16:48 24 997 247 3 W 0 48.2 403
17:19:48 24 997 248 3 S 0 47.7 407
17:22:48 24 997 248 4 SW 0 47.1 407
17:25:47 24 996 234 4 S 0 47 404
17:28:49 23 996 247 7 W 0 46.7 406
17:31:50 24 997 232 1 SO 0 48.7 407
17:34:47 23 996 218 5 S 0 47.6 406
17:37:46 22 997 218 13 NW 0 47.1 407
17:40:49 20 996 223 3 NW 0 48 406
17:43:49 20 996 248 4 SO 0 55.4 404
17:46:48 21 997 248 3 SW 0 53.4 407
17:49:47 23 996 243 5 S 0 51.7 403
17:52:50 23 997 248 12 W 0 45.3 405
17:55:46 22 997 231 9 0 42.4 407
17:58:47 20 997 234 5 NW 0 47.4 404
18:01:47 20 997 248 6 SO 0 48.4 403
18:04:49 21 996 248 11 W 0 47.8 406
18:07:44 21 997 247 5 0 47.5 406
18:10:47 22 997 247 5 N 0 47.7 406
18:13:49 23 997 247 6 W 0 45.6 407
18:16:47 24 996 248 3 SO 0 45.2 406
18:19:52 24 997 247 11 NW 0 42.1 404
18:22:48 23 997 247 12 NW 0 41.9 407
18:25:47 23 997 247 3 NO 0 42.7 403
18:28:49 24 998 247 5 W 0 43.6 404
18:31:48 23 997 247 4 O 0 45.1 406
18:34:48 23 998 245 3 SW 0 45.5 406
18:37:47 23 996 247 1 S 0 46.2 406
18:40:50 23 997 243 8 NW 0 44.7 406
18:43:49 21 997 229 6 W 0 44.4 404
18:46:46 20 997 247 3 W 0 50.4 406
18:49:49 21 997 194 8 SO 0 49.9 406
18:52:47 20 997 214 3 SO 0 48.8 407
18:55:48 19 998 234 3 SW 0 50.4 404
18:58:49 19 997 233 4 SW 0 52.6 403
19:01:50 19 998 218 2 W 0 53.8 407
19:04:47 19 997 227 3 SO 0 54 409
19:07:48 18 997 220 3 S 0 52.7 418
19:10:49 18 997 215 2 SO 0 53.6 431
19:13:47 18 998 215 5 NW 0 53.9 439
19:16:48 17 998 219 5 SW 0 54.4 439
19:19:48 17 997 223 4 NW 0 55.8 442
19:22:47 17 998 221 3 SW 0 57.2 456
19:25:48 18 997 229 3 SW 0 58 466
19:28:48 18 997 233 5 SW 0 58.1 468
19:31:47 18 997 219 4 W 0 57 477
19:34:48 18 998 214 7 SW 0 57.6 477
19:37:50 17 998 217 1 W 0 58.3 486
19:40:46 17 997 210 5 S 0 58.7 486
19:43:49 17 997 203 5 NW 0 58.2 498
19:46:48 17 998 201 4 SO 0 58.3 515
19:49:50 17 998 207 4 SO 0 60.1 532
19:52:48 16 997 152 3 NW 0 60.8 530
19:55:46 16 998 157 4 S 0 61.5 474
19:58:47 16 998 149 1 NO 0 62.4 431
20:01:46 16 997 146 1 S 0 62.4 413
20:04:50 16 997 162 3 NW 0 62.7 421
20:07:48 16 998 171 2 SO 0 62.6 413
20:10:48 16 997 165 1 S 0 63.3 410
20:13:48 16 997 163 2 SO 0 63.8 406
20:16:47 16 998 158 1 W 0 64.6 404
20:19:49 16 998 156 4 SO 0 63.7 407
20:22:47 16 997 148 5 NW 0 62.7 407
20:25:48 16 998 184 1 NW 0 62.1 406
20:28:47 16 997 182 2 NW 0 62 407
20:31:49 16 997 180 5 SW 0 62.4 407
20:34:52 16 998 177 4 NW 0 62.2 406
20:37:47 15 997 175 3 N 0 62.2 407
20:40:49 15 998 175 4 NW 0 62.9 404
20:43:48 15 998 173 1 NW 0 63.8 415
20:46:47 15 997 170 2 W 0 65 433
20:49:47 15 998 168 7 SW 0 65.1 448
20:52:46 15 998 165 1 S 0 64.2 457
20:55:50 15 998 160 2 NW 0 64.8 460
20:58:48 15 998 158 4 N 0 64.9 460
21:01:48 15 997 155 2 W 0 64.9 441
21:04:49 15 998 150 4 SO 0 65.3 427
21:07:47 15 998 145 5 W 0 64.9 421
21:10:48 15 998 140 0 O 0 65 428
21:13:47 15 998 135 3 NW 0 65.7 433
21:16:49 14 998 134 2 NW 0 66.3 439
21:19:47 14 998 129 2 N 0 66.8 439
21:22:48 14 998 119 12 NW 0 67.3 439
21:25:48 14 998 112 5 NW 0 67.4 442
21:28:48 14 998 108 5 N 0 68.3 442
21:31:49 14 998 103 2 NW 0 68.6 453
21:34:49 14 998 88 3 NW 0 69.3 459
21:37:47 14 998 81 4 W 0 69.5 459
21:40:46 14 998 67 4 N 0 70.1 459
21:43:48 14 998 60 2 NW 0 70.5 457
21:46:48 14 998 52 5 NW 0 70.9 465
21:49:47 14 998 46 7 W 0 70.9 468
21:52:48 14 998 39 0 NO 0 71 483
21:55:47 14 998 33 3 NW 0 71.5 471
21:58:45 14 998 27 5 NO 0 72.1 477
22:01:49 14 998 21 1 NO 0 71.6 478
22:04:48 13 998 17 0 SW 0 71.5 484
22:07:45 13 999 13 1 O 0 71.7 488
22:10:45 13 998 10 3 0 72.1 494
22:13:46 13 999 8 3 O 0 72.6 495
22:16:48 13 998 6 2 NW 0 72.4 504
22:19:46 13 998 5 4 O 0 72.4 503
22:22:47 13 999 4 2 NW 0 72 515
22:25:48 13 999 4 0 NW 0 72.1 515
22:28:47 13 998 3 4 O 0 72.5 515
22:31:45 13 998 3 0 N 0 72.9 515
22:34:47 13 998 3 2 NW 0 73.8 518
22:37:47 13 999 0 0 W 0 74.1 518
22:40:48 13 998 0 1 W 0 74.3 522
22:43:45 12 999 0 0 W 0 75.3 518
22:46:45 12 999 0 0 O 0 75.4 515
22:49:44 12 999 0 0 O 0 76.2 518
22:52:47 12 999 0 0 O 0 76.9 521
22:55:45 12 999 0 0 S 0 77.7 521
22:58:47 11 999 0 0 S 0 78 521
23:01:44 11 998 0 0 S 0 78.6 512
23:04:44 11 999 0 0 S 0 78.5 512
23:07:48 11 998 0 0 SO 0 79 513
23:10:46 11 998 0 0 SO 0 79.2 511
23:13:47 11 999 0 0 O 0 79.7 515
23:16:47 11 998 0 1 SO 0 80.4 518
23:19:48 10 999 0 1 W 0 81 524
23:22:45 10 999 0 0 SO 0 81.5 521
23:25:46 10 999 0 0 S 0 81.8 524
23:28:47 10 999 0 1 SW 0 82.2 524
23:31:48 10 999 0 0 SO 0 83 526
23:34:45 10 999 0 0 S 0 83.7 527
23:37:49 10 999 0 0 S 0 83.6 559
23:40:45 10 999 0 0 SW 0 83.6 574
23:43:49 10 999 0 0 SO 0 84.3 582
23:46:46 10 998 0 0 SO 0 84.4 565
23:49:47 10 999 0 0 SO 0 84.8 565
23:52:48 10 999 0 0 SO 0 84.9 564
23:55:48 10 999 0 0 SW 0 84.9 562
23:58:46 10 998 0 0 SW 0 85 562

Letzte Änderung : 22-Jul-2022
Copyright Jens Köhler, Wolfsburg, Obere Dorfstraße 10d